COSMOS 249 DEB, 15775

Orbit data source: Space-Track

COSMOS 249 DEB, 15775 is space debris in LEO originally from a launch on Sun, 20 Oct 1968 UTC launched from the Tyuratam Missile And Space Complex (TTMTR). Debris objects in space refer to the collection of defunct objects orbiting the Earth. Examples of debris include non-operational satellites, rocket bodies, and fragments generated from explosions, collisions, or faulty payload assembly.

Loading next visibility...
Identifier
15775, 1968-091DA
Orbit
LEO
Country
Flag of CISCIS
Related business
Manufacturer
Unknown
Mission
Spacecraft
Bus & Motor
Unknown
Mass
Unknown
Launch date (UTC)
1968-10-20 (58 years ago)
Launch vehicle
Unknown
Launch site
Tyuratam Missile And Space Complex (TTMTR)
Object type
Payload
Rocket body
Debris
Shape & HBR
Unknown shape, 1.1 m
Radar Cross Section
Medium (>0.1 m² and <1 m²)

Expand to show TLE details & history
Last TLE update: 3 weeks ago

TLE from 3 weeks ago
0 COSMOS 249 DEB
1 15775U 68091DA  26153.29656641  .00001807  00000-0  22484-2 0  9993
2 15775  62.2991 116.0270 0664193 324.8634  31.0203 12.99268501565651
Epoch: 2026-06-02T07:07Z
TLE epoch observation values (Epoch: 2026-06-02T07:07:03.337Z)
Latitude
-0.00005°
Longitude
118.4915°
Altitude
841.313 km
Speed
7.636 km/s
True Right ascension
07h 44m 06s
True Declination
0° 00' 00"
Sunlit
Object was in daylight at epoch
Visualization orbit readout
Latitude
Unknown
Longitude
Unknown
Altitude
Unknown
Speed
Unknown
Apparent Right ascension
Unknown
Apparent Declination
Unknown
Sunlit
N/A
Visualization observer readout
Local Sidereal Time
11:43:29
Azimuth
Unknown
Elevation
Unknown
Doppler factor
Unknown
Orbital elements
Apogee altitude
1,771.524 km
Perigee altitude
756.361 km
Semi-major axis
7,642.079 km
Eccentricity
0.06642
Inclination
62.2991°
RAAN
116.027°
Arg. of periapsis
324.8634°
True anomaly
35.23821°
Mean anomaly
31.0203°
Eccentric anomaly
33.09843°
Mean motion
3.24882 °/min
Orbital period
110.81 mins
BSTAR
0.0022484
Loading maneuver chart data...
Computing Atmospheric mass density...

Documentation

Showing up to 5 results
|